Content
SEND FEEDBACK

Daily
Averages
Monthly
Summary
Mauritania

PORT-ETIENNE, MAURITANIA


Home > Africa > Mauritania
Elevation: 10 feet     Latitude: 20 54N     Longitude: 017 06W

WEATHER
 
SELECT A DAY
Number of Records: 122,984;   Date Range: 7/1/96 - 12/26/14
 
SHARE

PRINT THIS DATA

[ ← Previous Day ]
WEATHER ALMANAC - JANUARY 10, 2013
[ Next Day → ]
[ °C ]   °F
Weather ElementAverageHighLow
Temperature66.2 °F82.4 °F (5:00 pm)57.2 °F (3:00 am)
Dewpoint42.5 °F58 °F (9:00 pm)28.4 °F (5:00 pm)
Humidity45.3 %77 % (9:00 pm)7 % (3:00 pm)
Barometer30.04 in30.11 in (9:00 am)29.98 in (4:00 pm)
Wind Speed9.9 mph13.8 mph (6:00 am)
Weather ElementAverage
Visibility5 mi
Wind DirectionSSE (151.7 °)

Weather ElementTotal
Precipitation---
Cooling Degree Days4.8 (Base 65)
Growing Degree Days19.8 (Base 50)
Averaged from 30 records on January 10, 2013
WEATHER CONDITIONS BREAKOUT
WIND DIRECTION BREAKOUT
WEATHER BY HOUR - JANUARY 10, 2013
[ °C ]   °F
Local TimeTemperatureDewpointHumidityBarometerVisibilityWind DirectionWind SpeedGust SpeedPrecipitationEventsConditions
12:00 AM62.6 °F48.2 °F59 %30.09 in5.0 miNNW (340°)10.4 mph
1:00 AM59.0 °F50.0 °F72 %30.06 in5.0 miNorth (350°)11.5 mph
2:00 AM59.0 °F48.2 °F67 %30.06 in5.0 miNorth (350°)10.4 mph
3:00 AM58.0 °F51.0 °F70 %30.08 in5.0 miNorth9.2 mph
3:00 AM57.2 °F48.2 °F72 %30.06 in5.0 miNorth (350°)10.4 mph
4:00 AM57.2 °F46.4 °F67 %30.06 in5.0 miNorth (360°)11.5 mph
5:00 AM59.0 °F41.0 °F51 %30.04 in5.0 miNNE (20°)10.4 mph
6:00 AM59.0 °F37.4 °F45 %30.04 in5.0 miNNE (30°)12.7 mph
6:00 AM60.0 °F39.0 °F34 %30.07 in5.0 miNNE (20°)13.8 mph
7:00 AM59.0 °F37.4 °F45 %30.06 in5.0 miNNE (30°)12.7 mph
8:00 AM59.0 °F37.4 °F45 %30.06 in5.0 miNNE (30°)10.4 mph
9:00 AM60.0 °F40.0 °F35 %30.11 in5.0 miNNE (30°)11.5 mph
9:00 AM60.8 °F37.4 °F42 %30.09 in5.0 miNE (40°)11.5 mph
10:00 AM62.6 °F37.4 °F39 %30.09 in5.0 miNE (50°)13.8 mph
11:00 AM66.2 °F37.4 °F35 %30.09 in5.0 miNE (40°)12.7 mph
12:00 PM71.6 °F37.4 °F29 %30.06 in5.0 miNE (40°)9.2 mph
12:00 PM71.0 °F42.0 °F23 %30.09 in5.0 miNNE (20°)6.9 mph
1:00 PM75.2 °F37.4 °F25 %30.04 in5.0 miNE (50°)9.2 mph
2:00 PM78.8 °F33.8 °F20 %30.01 in5.0 miEast (80°)6.9 mph
3:00 PM81.0 °F29.0 °F7 %30.01 in5.0 miSE (130°)6.9 mph
3:00 PM80.6 °F30.2 °F16 %30.01 in5.0 miSE (130°)6.9 mph
4:00 PM80.6 °F30.2 °F16 %29.98 in5.0 miSSE (150°)6.9 mph
5:00 PM82.4 °F28.4 °F14 %29.98 in5.0 miVariable2.3 mph
6:00 PM71.6 °F50.0 °F46 %29.98 in5.0 miNW (310°)9.2 mph
7:00 PM69.8 °F51.8 °F53 %29.98 in5.0 miNW (320°)8.1 mph
8:00 PM68.0 °F53.6 °F60 %30.01 in5.0 miNW (320°)4.6 mph
9:00 PM65.0 °F58.0 °F73 %30.04 in5.0 miNW (310°)11.5 mph
9:00 PM64.4 °F57.2 °F77 %30.01 in5.0 miNW (320°)12.7 mph
10:00 PM64.4 °F50.0 °F59 %30.04 in5.0 miNW (320°)11.5 mph
11:00 PM62.6 °F50.0 °F63 %30.04 in5.0 miNorth (10°)11.5 mph
Hourly data recorded from GQPP, located miles away from Port-Etienne, Mauritania







STORIES FROM OUR PARTNERS